| time (UTC) | temp F | wind direction | speed knots | gust knots | rain 1hr in | rain 24hr in | rain mn in | humidity % | barometer mb |
| 20260505200556 | 66 | 268 | 2.6 | 5.2 | 0.00 | 0.00 | 0.00 | 86 | 1011.5 |
| 20260505200241 | 66 | 269 | 6.1 | 7.8 | 0.00 | 0.00 | 0.00 | 86 | 1008.2 |
| 20260505200052 | 66 | 260 | 5.2 | 6.1 | 0.00 | 0.00 | 0.00 | 86 | 1011.9 |
| 20260505195741 | 66 | 264 | 5.2 | 8.7 | 0.00 | 0.00 | 0.00 | 86 | 1008.2 |
| 20260505195552 | 66 | 223 | 3.5 | 8.7 | 0.00 | 0.00 | 0.00 | 86 | 1011.5 |
| 20260505195241 | 66 | 264 | 5.2 | 8.7 | 0.00 | 0.00 | 0.00 | 86 | 1008.1 |
| 20260505195053 | 66 | 232 | 5.2 | 7.8 | 0.00 | 0.00 | 0.00 | 87 | 1011.5 |
| 20260505194741 | 66 | 217 | 5.2 | 7.8 | 0.00 | 0.00 | 0.00 | 86 | 1008.1 |
| 20260505194553 | 66 | 229 | 4.3 | 7.8 | 0.00 | 0.00 | 0.00 | 86 | 1011.5 |
| 20260505194240 | 66 | 227 | 6.1 | 8.7 | 0.00 | 0.00 | 0.00 | 86 | 1007.8 |
| 20260505194052 | 66 | 243 | 5.2 | 8.7 | 0.00 | 0.00 | 0.00 | 86 | 1011.2 |
| 20260505193741 | 66 | 208 | 6.1 | 8.7 | 0.00 | 0.00 | 0.00 | 86 | 1007.7 |
| 20260505193552 | 66 | 215 | 5.2 | 11.3 | 0.00 | 0.00 | 0.00 | 86 | 1011.2 |
| 20260505193241 | 66 | 208 | 3.5 | 8.7 | 0.00 | 0.00 | 0.00 | 86 | 1008.0 |
| 20260505193052 | 66 | 211 | 1.7 | 8.7 | 0.00 | 0.00 | 0.00 | 86 | 1011.2 |
| 20260505192741 | 66 | 278 | 3.5 | 9.6 | 0.00 | 0.00 | 0.00 | 86 | 1007.8 |
| 20260505192553 | 66 | 225 | 6.1 | 10.4 | 0.00 | 0.00 | 0.00 | 86 | 1011.2 |
| 20260505192240 | 66 | 216 | 5.2 | 8.7 | 0.00 | 0.00 | 0.00 | 86 | 1007.8 |
| 20260505192051 | 66 | 248 | 7.0 | 11.3 | 0.00 | 0.00 | 0.00 | 86 | 1011.2 |
| 20260505191740 | 66 | 222 | 3.5 | 9.6 | 0.00 | 0.00 | 0.00 | 86 | 1007.8 |
| 20260505191552 | 66 | 274 | 5.2 | 10.4 | 0.00 | 0.00 | 0.00 | 86 | 1011.2 |
| 20260505191241 | 66 | 230 | 6.1 | 9.6 | 0.00 | 0.00 | 0.00 | 85 | 1007.6 |
| 20260505191054 | 66 | 219 | 4.3 | 11.3 | 0.00 | 0.00 | 0.00 | 85 | 1011.2 |
| 20260505190741 | 66 | 230 | 6.1 | 9.6 | 0.00 | 0.00 | 0.00 | 85 | 1007.6 |
| 20260505190552 | 66 | 278 | 1.7 | 10.4 | 0.00 | 0.00 | 0.00 | 85 | 1010.8 |
| 20260505190241 | 66 | 226 | 5.2 | 7.8 | 0.00 | 0.00 | 0.00 | 85 | 1007.4 |
| 20260505190052 | 66 | 217 | 7.8 | 11.3 | 0.00 | 0.00 | 0.00 | 85 | 1010.8 |
| 20260505185741 | 66 | 217 | 7.8 | 7.8 | 0.00 | 0.00 | 0.00 | 85 | 1007.7 |
| 20260505185551 | 66 | 237 | 4.3 | 7.8 | 0.00 | 0.00 | 0.00 | 85 | 1010.8 |
| 20260505185241 | 66 | 257 | 3.5 | 11.3 | 0.00 | 0.00 | 0.00 | 85 | 1007.4 |
| 20260505185052 | 66 | 227 | 6.1 | 9.6 | 0.00 | 0.00 | 0.00 | 85 | 1010.8 |
| 20260505184741 | 66 | 257 | 3.5 | 11.3 | 0.00 | 0.00 | 0.00 | 85 | 1007.5 |
| 20260505184555 | 66 | 219 | 3.5 | 9.6 | 0.00 | 0.00 | 0.00 | 85 | 1010.8 |
| 20260505184241 | 66 | 232 | 6.1 | 11.3 | 0.00 | 0.00 | 0.00 | 84 | 1007.3 |
| 20260505184052 | 66 | 213 | 5.2 | 9.6 | 0.00 | 0.00 | 0.00 | 85 | 1010.8 |
| 20260505183741 | 66 | 232 | 1.7 | 11.3 | 0.00 | 0.00 | 0.00 | 84 | 1007.5 |
| 20260505183554 | 66 | 216 | 9.6 | 12.2 | 0.00 | 0.00 | 0.00 | 84 | 1010.8 |
| 20260505183241 | 66 | 217 | 6.1 | 9.6 | 0.00 | 0.00 | 0.00 | 84 | 1007.3 |
| 20260505183052 | 66 | 230 | 6.1 | 12.2 | 0.00 | 0.00 | 0.00 | 84 | 1010.8 |
| 20260505182741 | 66 | 231 | 7.8 | 12.2 | 0.00 | 0.00 | 0.00 | 84 | 1007.2 |
| 20260505182552 | 66 | 259 | 7.0 | 12.2 | 0.00 | 0.00 | 0.00 | 84 | 1010.8 |
| 20260505182240 | 66 | 234 | 5.2 | 13.9 | 0.00 | 0.00 | 0.00 | 84 | 1007.4 |
| 20260505182055 | 66 | 215 | 8.7 | 12.2 | 0.00 | 0.00 | 0.00 | 83 | 1010.8 |
| 20260505181741 | 66 | 234 | 5.2 | 13.9 | 0.00 | 0.00 | 0.00 | 84 | 1007.4 |
| 20260505181552 | 66 | 218 | 7.0 | 11.3 | 0.00 | 0.00 | 0.00 | 83 | 1011.2 |
| 20260505181241 | 66 | 240 | 7.8 | 14.8 | 0.00 | 0.00 | 0.00 | 83 | 1007.5 |
| 20260505181054 | 66 | 213 | 9.6 | 13.0 | 0.00 | 0.00 | 0.00 | 83 | 1010.8 |
| 20260505180741 | 66 | 228 | 7.8 | 14.8 | 0.00 | 0.00 | 0.00 | 83 | 1007.4 |
| 20260505180552 | 66 | 220 | 8.7 | 14.8 | 0.00 | 0.00 | 0.00 | 83 | 1011.2 |
| 20260505180241 | 66 | 228 | 7.0 | 14.8 | 0.00 | 0.00 | 0.00 | 83 | 1007.4 |
| 20260505180052 | 66 | 212 | 6.1 | 14.8 | 0.00 | 0.00 | 0.00 | 83 | 1010.8 |
| 20260505175741 | 66 | 205 | 5.2 | 12.2 | 0.00 | 0.00 | 0.00 | 82 | 1007.4 |
| 20260505175552 | 66 | 227 | 7.8 | 11.3 | 0.00 | 0.00 | 0.00 | 82 | 1010.8 |
| 20260505175241 | 66 | 205 | 10.4 | 12.2 | 0.00 | 0.00 | 0.00 | 82 | 1007.3 |
| 20260505175053 | 66 | 229 | 7.8 | 13.0 | 0.00 | 0.00 | 0.00 | 82 | 1010.5 |
| 20260505174741 | 66 | 216 | 9.6 | 10.4 | 0.00 | 0.00 | 0.00 | 81 | 1007.5 |
| 20260505174552 | 67 | 220 | 9.6 | 13.0 | 0.00 | 0.00 | 0.00 | 80 | 1010.8 |
| 20260505174241 | 67 | 224 | 11.3 | 14.8 | 0.00 | 0.00 | 0.00 | 81 | 1007.3 |
| 20260505174054 | 66 | 236 | 7.0 | 12.2 | 0.00 | 0.00 | 0.00 | 81 | 1010.8 |
| 20260505173741 | 66 | 215 | 7.8 | 12.2 | 0.00 | 0.00 | 0.00 | 80 | 1007.3 |
| 20260505173240 | 67 | 198 | 9.6 | 15.6 | 0.00 | 0.00 | 0.00 | 78 | 1007.3 |
| 20260505173106 | 67 | 221 | 10.4 | 14.8 | 0.00 | 0.00 | 0.00 | 79 | 1010.8 |
| 20260505172741 | 67 | 238 | 7.0 | 16.5 | 0.00 | 0.00 | 0.00 | 78 | 1007.1 |
| 20260505172554 | 67 | 196 | 8.7 | 13.0 | 0.00 | 0.00 | 0.00 | 78 | 1010.5 |
| 20260505172241 | 67 | 238 | 7.0 | 16.5 | 0.00 | 0.00 | 0.00 | 78 | 1007.1 |
| 20260505172054 | 67 | 204 | 7.8 | 13.9 | 0.00 | 0.00 | 0.00 | 78 | 1010.5 |
| 20260505171741 | 67 | 227 | 9.6 | 15.6 | 0.00 | 0.00 | 0.00 | 77 | 1007.2 |
| 20260505171553 | 67 | 249 | 5.2 | 11.3 | 0.00 | 0.00 | 0.00 | 78 | 1010.5 |
| 20260505171241 | 68 | 227 | 6.1 | 15.6 | 0.00 | 0.00 | 0.00 | 77 | 1007.2 |
| 20260505171053 | 68 | 192 | 7.0 | 12.2 | 0.00 | 0.00 | 0.00 | 77 | 1010.5 |
| 20260505170741 | 68 | 219 | 9.6 | 13.0 | 0.00 | 0.00 | 0.00 | 77 | 1007.1 |
| 20260505170553 | 68 | 185 | 6.1 | 13.0 | 0.00 | 0.00 | 0.00 | 77 | 1010.5 |
| 20260505170241 | 67 | 219 | 4.3 | 13.0 | 0.00 | 0.00 | 0.00 | 77 | 1007.2 |
| 20260505170053 | 67 | 224 | 9.6 | 14.8 | 0.00 | 0.00 | 0.00 | 76 | 1010.5 |
| 20260505165741 | 68 | 215 | 5.2 | 15.6 | 0.00 | 0.00 | 0.00 | 75 | 1007.3 |
| 20260505165556 | 67 | 216 | 7.0 | 14.8 | 0.00 | 0.00 | 0.00 | 76 | 1010.8 |
| 20260505165241 | 68 | 215 | 5.2 | 15.6 | 0.00 | 0.00 | 0.00 | 75 | 1007.1 |
| 20260505165052 | 68 | 217 | 10.4 | 15.6 | 0.00 | 0.00 | 0.00 | 75 | 1010.5 |
| 20260505164741 | 68 | 169 | 7.8 | 16.5 | 0.00 | 0.00 | 0.00 | 76 | 1007.1 |
| 20260505164554 | 68 | 195 | 10.4 | 15.6 | 0.00 | 0.00 | 0.00 | 76 | 1010.5 |
| 20260505164241 | 68 | 187 | 7.8 | 15.6 | 0.00 | 0.00 | 0.00 | 75 | 1007.4 |
| 20260505164054 | 68 | 176 | 7.0 | 13.9 | 0.00 | 0.00 | 0.00 | 75 | 1010.8 |
| 20260505163740 | 68 | 197 | 7.8 | 13.9 | 0.00 | 0.00 | 0.00 | 75 | 1007.2 |
| 20260505163553 | 68 | 244 | 9.6 | 14.8 | 0.00 | 0.00 | 0.00 | 75 | 1010.8 |
| 20260505163241 | 68 | 210 | 6.1 | 13.9 | 0.00 | 0.00 | 0.00 | 75 | 1007.1 |
| 20260505163052 | 68 | 234 | 10.4 | 14.8 | 0.00 | 0.00 | 0.00 | 74 | 1010.5 |
| 20260505162741 | 68 | 221 | 7.8 | 13.0 | 0.00 | 0.00 | 0.00 | 73 | 1007.2 |
| 20260505162553 | 68 | 207 | 7.8 | 16.5 | 0.00 | 0.00 | 0.00 | 74 | 1010.8 |
| 20260505162240 | 67 | 206 | 5.2 | 15.6 | 0.00 | 0.00 | 0.00 | 74 | 1007.3 |
| 20260505162053 | 67 | 177 | 10.4 | 13.0 | 0.00 | 0.00 | 0.00 | 74 | 1010.8 |
| 20260505161741 | 67 | 222 | 7.8 | 15.6 | 0.00 | 0.00 | 0.00 | 73 | 1007.5 |
| 20260505161557 | 68 | 232 | 12.2 | 17.4 | 0.00 | 0.00 | 0.00 | 73 | 1010.8 |
| 20260505161240 | 68 | 227 | 7.8 | 16.5 | 0.00 | 0.00 | 0.00 | 73 | 1007.3 |
| 20260505161053 | 68 | 206 | 9.6 | 13.0 | 0.00 | 0.00 | 0.00 | 73 | 1010.8 |
| 20260505160740 | 68 | 221 | 13.0 | 17.4 | 0.00 | 0.00 | 0.00 | 73 | 1007.3 |
| 20260505160554 | 68 | 221 | 8.7 | 16.5 | 0.00 | 0.00 | 0.00 | 73 | 1010.8 |
| 20260505160241 | 68 | 162 | 12.2 | 17.4 | 0.00 | 0.00 | 0.00 | 72 | 1007.2 |
| 20260505153241 | 68 | 209 | 9.6 | 14.8 | 0.00 | 0.00 | 0.00 | 73 | 1007.4 |
| 20260505153052 | 68 | 212 | 11.3 | 13.9 | 0.00 | 0.00 | 0.00 | 73 | 1010.8 |
| 20260505152741 | 68 | 204 | 10.4 | 13.0 | 0.00 | 0.00 | 0.00 | 74 | 1007.5 |
| 20260505152553 | 68 | 220 | 6.1 | 14.8 | 0.00 | 0.00 | 0.00 | 73 | 1011.2 |
| 20260505152241 | 68 | 225 | 7.8 | 14.8 | 0.00 | 0.00 | 0.00 | 74 | 1007.6 |
| 20260505152052 | 68 | 204 | 7.8 | 14.8 | 0.00 | 0.00 | 0.00 | 74 | 1010.8 |
| 20260505151741 | 68 | 231 | 11.3 | 13.0 | 0.00 | 0.00 | 0.00 | 74 | 1007.7 |
| 20260505151552 | 68 | 208 | 9.6 | 16.5 | 0.00 | 0.00 | 0.00 | 72 | 1011.2 |
| 20260505151241 | 68 | 189 | 7.0 | 15.6 | 0.00 | 0.00 | 0.00 | 74 | 1007.6 |
| 20260505151052 | 68 | 186 | 11.3 | 18.2 | 0.00 | 0.00 | 0.00 | 74 | 1010.8 |
| 20260505150741 | 68 | 207 | 12.2 | 14.8 | 0.00 | 0.00 | 0.00 | 73 | 1007.2 |
| 20260505150553 | 68 | 214 | 10.4 | 16.5 | 0.00 | 0.00 | 0.00 | 74 | 1011.2 |
| 20260505150241 | 69 | 171 | 7.8 | 14.8 | 0.00 | 0.00 | 0.00 | 73 | 1007.6 |
| 20260505140555 | 69 | 144 | 2.6 | 13.9 | 0.00 | 0.00 | 0.00 | 66 | 1011.2 |
| 20260505140241 | 69 | 212 | 7.8 | 14.8 | 0.00 | 0.00 | 0.00 | 66 | 1007.8 |
| 20260505130241 | 68 | 180 | 11.3 | 19.1 | 0.00 | 0.00 | 0.00 | 71 | 1008.5 |
| 20260505124741 | 68 | 180 | 4.3 | 16.5 | 0.00 | 0.00 | 0.00 | 73 | 1008.7 |
| 20260505124552 | 69 | 171 | 12.2 | 20.0 | 0.00 | 0.00 | 0.00 | 70 | 1012.2 |
| 20260505124241 | 68 | 165 | 5.2 | 13.0 | 0.00 | 0.00 | 0.00 | 74 | 1008.5 |
| 20260505124053 | 69 | 200 | 11.3 | 16.5 | 0.00 | 0.00 | 0.00 | 74 | 1011.9 |
| 20260505123741 | 68 | 165 | 9.6 | 13.0 | 0.00 | 0.00 | 0.00 | 74 | 1008.6 |
| 20260505123554 | 68 | 203 | 11.3 | 13.0 | 0.00 | 0.00 | 0.00 | 75 | 1011.9 |
| 20260505123241 | 68 | 166 | 7.8 | 16.5 | 0.00 | 0.00 | 0.00 | 71 | 1008.8 |
| 20260505123055 | 68 | 173 | 9.6 | 19.1 | 0.00 | 0.00 | 0.00 | 71 | 1012.2 |
| 20260505122741 | 69 | 190 | 2.6 | 15.6 | 0.00 | 0.00 | 0.00 | 71 | 1008.5 |
| 20260505122552 | 69 | 205 | 9.6 | 16.5 | 0.00 | 0.00 | 0.00 | 70 | 1011.9 |
| 20260505122241 | 68 | 173 | 11.3 | 15.6 | 0.00 | 0.00 | 0.00 | 71 | 1008.6 |
| 20260505122052 | 68 | 186 | 10.4 | 18.2 | 0.00 | 0.00 | 0.00 | 73 | 1011.9 |
| 20260505121741 | 68 | 173 | 11.3 | 18.2 | 0.00 | 0.00 | 0.00 | 70 | 1008.9 |
| 20260505121555 | 69 | 170 | 7.8 | 13.0 | 0.00 | 0.00 | 0.00 | 70 | 1011.9 |
| 20260505121241 | 68 | 159 | 8.7 | 19.1 | 0.00 | 0.00 | 0.00 | 73 | 1008.9 |
| 20260505121052 | 68 | 185 | 9.6 | 13.9 | 0.00 | 0.00 | 0.00 | 73 | 1011.9 |
| 20260505120741 | 68 | 159 | 7.0 | 19.1 | 0.00 | 0.00 | 0.00 | 73 | 1008.8 |
| 20260505120553 | 69 | 193 | 11.3 | 17.4 | 0.00 | 0.00 | 0.00 | 73 | 1012.2 |
| 20260505120241 | 69 | 216 | 2.6 | 14.8 | 0.00 | 0.00 | 0.00 | 72 | 1009.0 |
| 20260505120053 | 69 | 158 | 7.8 | 14.8 | 0.00 | 0.00 | 0.00 | 72 | 1012.2 |
| 20260505115741 | 69 | 196 | 7.0 | 14.8 | 0.00 | 0.00 | 0.00 | 72 | 1008.9 |
| 20260505115554 | 69 | 178 | 9.6 | 14.8 | 0.00 | 0.00 | 0.00 | 72 | 1012.5 |
| 20260505115241 | 68 | 193 | 7.8 | 13.9 | 0.00 | 0.00 | 0.00 | 73 | 1009.0 |
| 20260505115052 | 69 | 202 | 6.1 | 13.9 | 0.00 | 0.00 | 0.00 | 71 | 1012.5 |
| 20260505114741 | 68 | 193 | 7.8 | 13.9 | 0.00 | 0.00 | 0.00 | 73 | 1009.2 |
| 20260505114552 | 69 | 182 | 6.1 | 15.6 | 0.00 | 0.00 | 0.00 | 72 | 1012.5 |
| 20260505114241 | 68 | 168 | 13.0 | 13.0 | 0.00 | 0.00 | 0.00 | 74 | 1009.0 |
| 20260505114052 | 68 | 171 | 10.4 | 13.0 | 0.00 | 0.00 | 0.00 | 73 | 1012.5 |
| 20260505113741 | 68 | 168 | 13.0 | 13.0 | 0.00 | 0.00 | 0.00 | 74 | 1009.0 |
| 20260505113553 | 68 | 167 | 7.0 | 13.9 | 0.00 | 0.00 | 0.00 | 74 | 1012.5 |
| 20260505113241 | 68 | 159 | 10.4 | 14.8 | 0.00 | 0.00 | 0.00 | 73 | 1009.3 |
| 20260505113054 | 68 | 174 | 7.8 | 13.0 | 0.00 | 0.00 | 0.00 | 73 | 1012.5 |
| 20260505112741 | 68 | 168 | 5.2 | 11.3 | 0.00 | 0.00 | 0.00 | 73 | 1009.0 |
| 20260505112555 | 68 | 166 | 7.8 | 12.2 | 0.00 | 0.00 | 0.00 | 73 | 1012.5 |
| 20260505112240 | 68 | 172 | 7.8 | 12.2 | 0.00 | 0.00 | 0.00 | 73 | 1009.3 |
| 20260505112052 | 68 | 201 | 6.1 | 13.9 | 0.00 | 0.00 | 0.00 | 73 | 1012.5 |
| 20260505111741 | 69 | 189 | 6.1 | 11.3 | 0.00 | 0.00 | 0.00 | 74 | 1009.2 |
| 20260505111552 | 68 | 164 | 2.6 | 8.7 | 0.00 | 0.00 | 0.00 | 73 | 1012.9 |
| 20260505111241 | 68 | 160 | 7.0 | 11.3 | 0.00 | 0.00 | 0.00 | 74 | 1009.2 |
| 20260505111053 | 68 | 209 | 5.2 | 12.2 | 0.00 | 0.00 | 0.00 | 73 | 1012.5 |
| 20260505110741 | 68 | 163 | 9.6 | 11.3 | 0.00 | 0.00 | 0.00 | 74 | 1009.2 |
| 20260505110551 | 68 | 222 | 7.8 | 10.4 | 0.00 | 0.00 | 0.00 | 73 | 1012.5 |
| 20260505110240 | 68 | 163 | 6.1 | 11.3 | 0.00 | 0.00 | 0.00 | 73 | 1009.5 |
| 20260505102055 | 68 | 208 | 3.5 | 6.1 | 0.00 | 0.00 | 0.00 | 72 | 1012.9 |
| 20260505101741 | 69 | 154 | 4.3 | 7.0 | 0.00 | 0.00 | 0.00 | 72 | 1009.2 |
| 20260505101552 | 68 | 208 | 7.0 | 8.7 | 0.00 | 0.00 | 0.00 | 72 | 1012.9 |
| 20260505101240 | 68 | 236 | 4.3 | 6.1 | 0.00 | 0.00 | 0.00 | 71 | 1009.3 |
| 20260505101052 | 68 | 167 | 3.5 | 7.8 | 0.00 | 0.00 | 0.00 | 71 | 1012.9 |
| 20260505100740 | 68 | 204 | 4.3 | 6.1 | 0.00 | 0.00 | 0.00 | 74 | 1009.2 |
| 20260505100551 | 67 | 244 | 4.3 | 4.3 | 0.00 | 0.00 | 0.00 | 74 | 1012.9 |
| 20260505100240 | 67 | 227 | 2.6 | 7.8 | 0.00 | 0.00 | 0.00 | 74 | 1009.3 |
| 20260505100051 | 68 | 192 | 4.3 | 5.2 | 0.00 | 0.00 | 0.00 | 75 | 1012.9 |
| 20260505095741 | 68 | 194 | 4.3 | 7.0 | 0.00 | 0.00 | 0.00 | 72 | 1009.6 |
| 20260505095554 | 68 | 132 | 3.5 | 7.0 | 0.00 | 0.00 | 0.00 | 73 | 1012.5 |
| 20260505095241 | 67 | 230 | 3.5 | 5.2 | 0.00 | 0.00 | 0.00 | 73 | 1009.4 |
| 20260505095052 | 68 | 200 | 4.3 | 6.1 | 0.00 | 0.00 | 0.00 | 72 | 1012.9 |
| 20260505094741 | 67 | 190 | 7.0 | 9.6 | 0.00 | 0.00 | 0.00 | 73 | 1009.4 |
| 20260505094554 | 67 | 199 | 2.6 | 5.2 | 0.00 | 0.00 | 0.00 | 74 | 1012.9 |
| 20260505094241 | 68 | 190 | 7.0 | 9.6 | 0.00 | 0.00 | 0.00 | 72 | 1009.5 |
| 20260505094054 | 68 | 234 | 3.5 | 7.8 | 0.00 | 0.00 | 0.00 | 71 | 1012.9 |
| 20260505093741 | 68 | 208 | 5.2 | 7.0 | 0.00 | 0.00 | 0.00 | 70 | 1009.5 |
| 20260505093551 | 68 | 177 | 6.1 | 7.8 | 0.00 | 0.00 | 0.00 | 70 | 1013.2 |
| 20260505093241 | 68 | 221 | 3.5 | 9.6 | 0.00 | 0.00 | 0.00 | 71 | 1009.4 |
| 20260505093053 | 68 | 213 | 3.5 | 7.8 | 0.00 | 0.00 | 0.00 | 70 | 1012.9 |
| 20260505092741 | 68 | 195 | 4.3 | 9.6 | 0.00 | 0.00 | 0.00 | 71 | 1009.5 |
| 20260505092552 | 68 | 179 | 4.3 | 9.6 | 0.00 | 0.00 | 0.00 | 71 | 1012.9 |
| 20260505092241 | 68 | 195 | 4.3 | 7.8 | 0.00 | 0.00 | 0.00 | 71 | 1009.4 |
| 20260505092052 | 68 | 169 | 6.1 | 7.8 | 0.00 | 0.00 | 0.00 | 71 | 1012.9 |
| 20260505091740 | 68 | 180 | 4.3 | 7.8 | 0.00 | 0.00 | 0.00 | 71 | 1009.5 |
| 20260505091552 | 68 | 176 | 7.0 | 7.8 | 0.00 | 0.00 | 0.00 | 71 | 1012.9 |
| 20260505091240 | 67 | 210 | 6.1 | 9.6 | 0.00 | 0.00 | 0.00 | 70 | 1009.5 |
| 20260505091052 | 67 | 173 | 3.5 | 5.2 | 0.00 | 0.00 | 0.00 | 70 | 1012.9 |
| 20260505090741 | 67 | 210 | 6.1 | 9.6 | 0.00 | 0.00 | 0.00 | 70 | 1009.4 |
| 20260505090552 | 68 | 186 | 5.2 | 9.6 | 0.00 | 0.00 | 0.00 | 70 | 1012.9 |
| 20260505090241 | 68 | 182 | 4.3 | 8.7 | 0.00 | 0.00 | 0.00 | 71 | 1009.3 |
| 20260505090050 | 68 | 220 | 7.8 | 9.6 | 0.00 | 0.00 | 0.00 | 71 | 1012.5 |
| 20260505085741 | 67 | 268 | 4.3 | 6.1 | 0.00 | 0.00 | 0.00 | 74 | 1009.1 |
| 20260505085552 | 67 | 215 | 1.7 | 6.1 | 0.00 | 0.00 | 0.00 | 75 | 1012.9 |
| 20260505085241 | 68 | 219 | 4.3 | 7.0 | 0.00 | 0.00 | 0.00 | 75 | 1009.4 |
| 20260505085053 | 67 | 229 | 3.5 | 5.2 | 0.00 | 0.00 | 0.00 | 74 | 1012.9 |
| 20260505084741 | 68 | 219 | 4.3 | 7.0 | 0.00 | 0.00 | 0.00 | 75 | 1009.1 |
| 20260505084550 | 68 | 208 | 2.6 | 7.0 | 0.00 | 0.00 | 0.00 | 75 | 1012.5 |
| 20260505084240 | 68 | 145 | 0.9 | 4.3 | 0.00 | 0.00 | 0.00 | 76 | 1009.3 |
| 20260505084050 | 67 | 226 | 1.7 | 4.3 | 0.00 | 0.00 | 0.00 | 76 | 1012.5 |
| 20260505083741 | 67 | 145 | 0.9 | 4.3 | 0.00 | 0.00 | 0.00 | 76 | 1009.1 |
| 20260505083551 | 67 | 194 | 3.5 | 3.5 | 0.00 | 0.00 | 0.00 | 76 | 1012.9 |
| 20260505083240 | 67 | 189 | 3.5 | 6.1 | 0.00 | 0.00 | 0.00 | 76 | 1009.2 |
| 20260505083051 | 67 | 176 | 2.6 | 2.6 | 0.00 | 0.00 | 0.00 | 77 | 1012.9 |
| 20260505082740 | 67 | 189 | 3.5 | 6.1 | 0.00 | 0.00 | 0.00 | 76 | 1009.4 |
| 20260505082554 | 67 | 188 | 5.2 | 6.1 | 0.00 | 0.00 | 0.00 | 76 | 1012.9 |
| 20260505082241 | 68 | 217 | 1.7 | 5.2 | 0.00 | 0.00 | 0.00 | 76 | 1009.3 |
| 20260505082054 | 68 | 164 | 5.2 | 7.8 | 0.00 | 0.00 | 0.00 | 75 | 1012.9 |
| 20260505081741 | 67 | 217 | 3.5 | 5.2 | 0.00 | 0.00 | 0.00 | 76 | 1009.2 |
| 20260505081557 | 67 | 169 | 3.5 | 4.3 | 0.00 | 0.00 | 0.00 | 76 | 1012.9 |
| 20260505081241 | 66 | 207 | 2.6 | 5.2 | 0.00 | 0.00 | 0.00 | 78 | 1009.2 |
| 20260505081052 | 67 | 189 | 2.6 | 4.3 | 0.00 | 0.00 | 0.00 | 77 | 1012.9 |
| 20260505080741 | 66 | 207 | 2.6 | 5.2 | 0.00 | 0.00 | 0.00 | 78 | 1009.1 |
| 20260505080552 | 67 | 224 | 3.5 | 7.0 | 0.00 | 0.00 | 0.00 | 78 | 1012.9 |
| 20260505080240 | 66 | 277 | 3.5 | 5.2 | 0.00 | 0.00 | 0.00 | 80 | 1009.4 |
| 20260505080052 | 66 | 279 | 1.7 | 4.3 | 0.00 | 0.00 | 0.00 | 79 | 1012.9 |
| 20260505075741 | 66 | 277 | 3.5 | 5.2 | 0.00 | 0.00 | 0.00 | 80 | 1009.4 |
| 20260505075554 | 66 | 236 | 3.5 | 5.2 | 0.00 | 0.00 | 0.00 | 80 | 1012.9 |
| 20260505075241 | 66 | 232 | 3.5 | 4.3 | 0.00 | 0.00 | 0.00 | 81 | 1009.3 |
| 20260505075052 | 66 | 274 | 3.5 | 3.5 | 0.00 | 0.00 | 0.00 | 81 | 1012.5 |
| 20260505074741 | 66 | 225 | 2.6 | 4.3 | 0.00 | 0.00 | 0.00 | 81 | 1009.5 |
| 20260505074553 | 65 | 268 | 3.5 | 3.5 | 0.00 | 0.00 | 0.00 | 81 | 1012.9 |
| 20260505074241 | 65 | 276 | 3.5 | 4.3 | 0.00 | 0.00 | 0.00 | 82 | 1009.3 |
| 20260505074052 | 65 | 183 | 0.9 | 4.3 | 0.00 | 0.00 | 0.00 | 82 | 1012.9 |
| 20260505073741 | 65 | 276 | 3.5 | 4.3 | 0.00 | 0.00 | 0.00 | 82 | 1009.4 |
| 20260505073553 | 65 | 170 | 1.7 | 6.1 | 0.00 | 0.00 | 0.00 | 82 | 1012.5 |
| 20260505073241 | 65 | 220 | 4.3 | 6.1 | 0.00 | 0.00 | 0.00 | 82 | 1009.4 |
| 20260505073050 | 65 | 217 | 3.5 | 6.1 | 0.00 | 0.00 | 0.00 | 82 | 1012.9 |
| 20260505072741 | 66 | 234 | 4.3 | 7.0 | 0.00 | 0.00 | 0.00 | 82 | 1009.4 |
| 20260505072552 | 66 | 192 | 4.3 | 6.1 | 0.00 | 0.00 | 0.00 | 82 | 1012.9 |
| 20260505072241 | 66 | 234 | 4.3 | 7.0 | 0.00 | 0.00 | 0.00 | 82 | 1009.4 |
| 20260505072054 | 66 | 211 | 2.6 | 8.7 | 0.00 | 0.00 | 0.00 | 82 | 1012.9 |
| 20260505071741 | 65 | 247 | 3.5 | 7.0 | 0.00 | 0.00 | 0.00 | 82 | 1009.5 |
| 20260505071551 | 66 | 183 | 6.1 | 7.8 | 0.00 | 0.00 | 0.00 | 82 | 1012.9 |
| 20260505071241 | 65 | 205 | 5.2 | 6.1 | 0.00 | 0.00 | 0.00 | 83 | 1009.5 |
| 20260505071054 | 65 | 250 | 3.5 | 5.2 | 0.00 | 0.00 | 0.00 | 83 | 1012.9 |
| 20260505070741 | 65 | 248 | 2.6 | 4.3 | 0.00 | 0.00 | 0.00 | 83 | 1009.6 |
| 20260505070552 | 65 | 246 | 3.5 | 4.3 | 0.00 | 0.00 | 0.00 | 83 | 1012.9 |
| 20260505070241 | 65 | 248 | 1.7 | 4.3 | 0.00 | 0.00 | 0.00 | 83 | 1009.2 |
| 20260505070052 | 65 | 261 | 2.6 | 3.5 | 0.00 | 0.00 | 0.00 | 84 | 1012.9 |
| 20260505065741 | 65 | 287 | 1.7 | 3.5 | 0.00 | 0.00 | 0.00 | 84 | 1009.5 |
| 20260505065553 | 65 | 253 | 3.5 | 4.3 | 0.00 | 0.00 | 0.00 | 83 | 1013.2 |
| 20260505065240 | 65 | 201 | 3.5 | 6.1 | 0.00 | 0.00 | 0.00 | 83 | 1009.5 |
| 20260505065053 | 65 | 205 | 3.5 | 7.0 | 0.00 | 0.00 | 0.00 | 83 | 1012.9 |
| 20260505064741 | 65 | 201 | 3.5 | 6.1 | 0.00 | 0.00 | 0.00 | 83 | 1009.6 |
| 20260505064554 | 65 | 232 | 6.1 | 9.6 | 0.00 | 0.00 | 0.00 | 84 | 1013.2 |
| 20260505064240 | 65 | 203 | 5.2 | 7.8 | 0.00 | 0.00 | 0.00 | 84 | 1009.3 |
| 20260505064052 | 65 | 216 | 7.0 | 11.3 | 0.00 | 0.00 | 0.00 | 84 | 1012.9 |
| 20260505063740 | 65 | 203 | 5.2 | 7.8 | 0.00 | 0.00 | 0.00 | 84 | 1009.5 |
| 20260505063552 | 65 | 207 | 3.5 | 7.0 | 0.00 | 0.00 | 0.00 | 85 | 1012.9 |
| 20260505063241 | 65 | 202 | 4.3 | 7.8 | 0.00 | 0.00 | 0.00 | 85 | 1009.5 |
| 20260505063051 | 65 | 218 | 6.1 | 6.1 | 0.00 | 0.00 | 0.00 | 85 | 1012.9 |
| 20260505062741 | 65 | 202 | 4.3 | 7.8 | 0.00 | 0.00 | 0.00 | 85 | 1009.5 |
| 20260505062552 | 65 | 233 | 4.3 | 6.1 | 0.00 | 0.00 | 0.00 | 85 | 1012.9 |
| 20260505062240 | 65 | 192 | 3.5 | 7.8 | 0.00 | 0.00 | 0.00 | 85 | 1009.5 |
| 20260505062052 | 65 | 241 | 3.5 | 6.1 | 0.00 | 0.00 | 0.00 | 85 | 1013.2 |
| 20260505061741 | 65 | 223 | 3.5 | 7.8 | 0.00 | 0.00 | 0.00 | 85 | 1009.7 |
| 20260505061552 | 65 | 216 | 6.1 | 7.8 | 0.00 | 0.00 | 0.00 | 85 | 1013.2 |
| 20260505061240 | 65 | 198 | 2.6 | 11.3 | 0.00 | 0.00 | 0.00 | 85 | 1009.7 |
| 20260505061051 | 65 | 210 | 4.3 | 5.2 | 0.00 | 0.00 | 0.00 | 85 | 1012.9 |
| 20260505060740 | 65 | 240 | 7.0 | 10.4 | 0.00 | 0.00 | 0.00 | 85 | 1009.8 |
| 20260505060553 | 65 | 253 | 2.6 | 7.0 | 0.00 | 0.00 | 0.00 | 85 | 1012.9 |
| 20260505060241 | 65 | 220 | 5.2 | 8.7 | 0.00 | 0.00 | 0.00 | 86 | 1009.6 |
| 20260505060052 | 65 | 215 | 4.3 | 7.8 | 0.00 | 0.00 | 0.00 | 85 | 1012.9 |
| 20260505055740 | 65 | 210 | 3.5 | 8.7 | 0.00 | 0.00 | 0.00 | 86 | 1009.3 |
| 20260505055550 | 65 | 214 | 3.5 | 9.6 | 0.00 | 0.00 | 0.00 | 86 | 1012.9 |
| 20260505055241 | 65 | 238 | 4.3 | 8.7 | 0.00 | 0.00 | 0.00 | 86 | 1009.3 |
| 20260505055051 | 65 | 202 | 7.8 | 8.7 | 0.00 | 0.00 | 0.00 | 86 | 1012.9 |
| 20260505054741 | 65 | 207 | 4.3 | 7.0 | 0.00 | 0.00 | 0.00 | 86 | 1009.4 |
| 20260505054550 | 65 | 204 | 7.0 | 7.8 | 0.00 | 0.00 | 0.00 | 86 | 1012.9 |
| 20260505054241 | 65 | 257 | 2.6 | 3.5 | 0.00 | 0.00 | 0.00 | 86 | 1009.3 |
| 20260505054050 | 64 | 231 | 3.5 | 5.2 | 0.00 | 0.00 | 0.00 | 86 | 1012.9 |
| 20260505053740 | 64 | 251 | 3.5 | 5.2 | 0.00 | 0.00 | 0.00 | 86 | 1009.3 |
| 20260505053551 | 64 | 247 | 0.0 | 4.3 | 0.00 | 0.00 | 0.00 | 86 | 1012.9 |
| 20260505053240 | 64 | 233 | 2.6 | 5.2 | 0.00 | 0.00 | 0.00 | 87 | 1009.4 |
| 20260505053057 | 64 | 222 | 3.5 | 4.3 | 0.00 | 0.00 | 0.00 | 86 | 1012.9 |
| 20260505052740 | 64 | 227 | 3.5 | 6.1 | 0.00 | 0.00 | 0.00 | 87 | 1009.3 |
| 20260505052552 | 64 | 247 | 2.6 | 5.2 | 0.00 | 0.00 | 0.00 | 87 | 1012.9 |
| 20260505052241 | 64 | 204 | 4.3 | 8.7 | 0.00 | 0.00 | 0.00 | 87 | 1009.5 |
| 20260505052050 | 64 | 226 | 5.2 | 7.8 | 0.00 | 0.00 | 0.00 | 87 | 1012.9 |
| 20260505051741 | 64 | 222 | 4.3 | 8.7 | 0.00 | 0.00 | 0.00 | 87 | 1009.2 |
| 20260505051550 | 64 | 214 | 3.5 | 7.0 | 0.00 | 0.00 | 0.00 | 87 | 1012.5 |
| 20260505051240 | 64 | 204 | 6.1 | 7.8 | 0.00 | 0.00 | 0.00 | 87 | 1009.3 |
| 20260505051050 | 64 | 187 | 5.2 | 5.2 | 0.00 | 0.00 | 0.00 | 87 | 1012.5 |
| 20260505050741 | 64 | 204 | 6.1 | 7.8 | 0.00 | 0.00 | 0.00 | 87 | 1009.3 |
| 20260505050550 | 64 | 199 | 4.3 | 7.0 | 0.00 | 0.00 | 0.00 | 86 | 1012.5 |
| 20260505050240 | 64 | 215 | 6.1 | 6.1 | 0.00 | 0.00 | 0.00 | 86 | 1009.2 |
| 20260505041741 | 63 | 197 | 3.5 | 4.3 | 0.00 | 0.00 | 0.00 | 88 | 1009.3 |
| 20260505041551 | 63 | 238 | 2.6 | 7.0 | 0.00 | 0.00 | 0.00 | 89 | 1012.5 |
| 20260505041240 | 63 | 247 | 4.3 | 5.2 | 0.00 | 0.00 | 0.00 | 89 | 1009.1 |
| 20260505041050 | 63 | 194 | 3.5 | 7.0 | 0.00 | 0.00 | 0.00 | 89 | 1012.5 |
| 20260505040741 | 63 | 216 | 2.6 | 5.2 | 0.00 | 0.00 | 0.00 | 89 | 1009.3 |
| 20260505040550 | 63 | 224 | 2.6 | 7.0 | 0.00 | 0.00 | 0.00 | 89 | 1012.5 |
| 20260505040240 | 64 | 231 | 3.5 | 7.8 | 0.00 | 0.00 | 0.00 | 89 | 1009.1 |
| 20260505040051 | 64 | 178 | 0.9 | 4.3 | 0.00 | 0.00 | 0.00 | 89 | 1012.9 |
| 20260505035740 | 64 | 191 | 4.3 | 7.0 | 0.00 | 0.00 | 0.00 | 88 | 1009.2 |
| 20260505035550 | 64 | 203 | 3.5 | 6.1 | 0.00 | 0.00 | 0.00 | 88 | 1012.5 |
| 20260505035241 | 64 | 191 | 4.3 | 7.0 | 0.00 | 0.00 | 0.00 | 88 | 1009.2 |
| 20260505035052 | 64 | 221 | 3.5 | 7.8 | 0.00 | 0.00 | 0.00 | 88 | 1012.5 |
| 20260505034741 | 64 | 202 | 7.8 | 8.7 | 0.00 | 0.00 | 0.00 | 88 | 1009.2 |
| 20260505034550 | 64 | 205 | 4.3 | 7.0 | 0.00 | 0.00 | 0.00 | 88 | 1012.9 |
| 20260505034241 | 64 | 264 | 2.6 | 5.2 | 0.00 | 0.00 | 0.00 | 88 | 1009.4 |
| 20260505034050 | 64 | 221 | 5.2 | 7.8 | 0.00 | 0.00 | 0.00 | 88 | 1012.9 |
| 20260505033740 | 64 | 245 | 5.2 | 7.8 | 0.00 | 0.00 | 0.00 | 88 | 1009.5 |
| 20260505033550 | 64 | 259 | 3.5 | 6.1 | 0.00 | 0.00 | 0.00 | 88 | 1012.9 |
| 20260505033241 | 64 | 245 | 5.2 | 7.8 | 0.00 | 0.00 | 0.00 | 88 | 1009.4 |
| 20260505033051 | 64 | 218 | 2.6 | 5.2 | 0.00 | 0.00 | 0.00 | 88 | 1012.9 |
| 20260505032741 | 64 | 223 | 4.3 | 6.1 | 0.00 | 0.00 | 0.00 | 88 | 1009.5 |
| 20260505032551 | 64 | 181 | 4.3 | 6.1 | 0.00 | 0.00 | 0.00 | 88 | 1012.9 |
| 20260505032241 | 64 | 223 | 4.3 | 6.1 | 0.00 | 0.00 | 0.00 | 88 | 1009.3 |
| 20260505032050 | 64 | 209 | 3.5 | 6.1 | 0.00 | 0.00 | 0.00 | 88 | 1012.9 |
| 20260505031741 | 64 | 228 | 6.1 | 7.8 | 0.00 | 0.00 | 0.00 | 89 | 1009.5 |
| 20260505031551 | 64 | 257 | 4.3 | 6.1 | 0.00 | 0.00 | 0.00 | 89 | 1012.9 |
| 20260505031241 | 64 | 234 | 4.3 | 7.8 | 0.00 | 0.00 | 0.00 | 89 | 1009.5 |
| 20260505031051 | 64 | 235 | 3.5 | 9.6 | 0.00 | 0.00 | 0.00 | 89 | 1012.9 |
| 20260505030741 | 64 | 229 | 6.1 | 7.0 | 0.00 | 0.00 | 0.00 | 89 | 1009.4 |
| 20260505030550 | 64 | 224 | 5.2 | 6.1 | 0.00 | 0.00 | 0.00 | 89 | 1012.9 |
| 20260505030241 | 64 | 244 | 6.1 | 7.0 | 0.00 | 0.00 | 0.00 | 89 | 1009.7 |
| 20260505030050 | 64 | 228 | 5.2 | 7.8 | 0.00 | 0.00 | 0.00 | 90 | 1012.9 |
| 20260505025741 | 64 | 234 | 4.3 | 7.8 | 0.00 | 0.00 | 0.00 | 90 | 1009.7 |
| 20260505025550 | 64 | 220 | 4.3 | 7.8 | 0.00 | 0.00 | 0.00 | 90 | 1012.9 |
| 20260505025240 | 64 | 237 | 4.3 | 10.4 | 0.00 | 0.00 | 0.00 | 90 | 1009.7 |
| 20260505025050 | 64 | 200 | 4.3 | 8.7 | 0.00 | 0.00 | 0.00 | 90 | 1012.9 |
| 20260505024741 | 64 | 223 | 3.5 | 7.0 | 0.00 | 0.00 | 0.00 | 90 | 1009.8 |
| 20260505024551 | 64 | 210 | 7.0 | 9.6 | 0.00 | 0.00 | 0.00 | 90 | 1013.2 |
| 20260505024241 | 64 | 199 | 4.3 | 7.0 | 0.00 | 0.00 | 0.00 | 89 | 1009.8 |
| 20260505024050 | 64 | 223 | 3.5 | 7.8 | 0.00 | 0.00 | 0.00 | 89 | 1013.2 |
| 20260505023740 | 64 | 242 | 6.1 | 7.8 | 0.00 | 0.00 | 0.00 | 89 | 1009.8 |
| 20260505023550 | 64 | 280 | 3.5 | 7.0 | 0.00 | 0.00 | 0.00 | 89 | 1012.9 |
| 20260505023240 | 64 | 242 | 6.1 | 7.8 | 0.00 | 0.00 | 0.00 | 89 | 1009.7 |
| 20260505023050 | 64 | 194 | 4.3 | 9.6 | 0.00 | 0.00 | 0.00 | 89 | 1013.2 |
| 20260505022741 | 64 | 241 | 4.3 | 8.7 | 0.00 | 0.00 | 0.00 | 90 | 1009.6 |
| 20260505022551 | 63 | 216 | 4.3 | 7.8 | 0.00 | 0.00 | 0.00 | 89 | 1012.9 |
| 20260505022240 | 63 | 182 | 3.5 | 4.3 | 0.00 | 0.00 | 0.00 | 89 | 1009.6 |
| 20260505022051 | 63 | 173 | 0.0 | 5.2 | 0.00 | 0.00 | 0.00 | 89 | 1013.2 |
| 20260505021741 | 63 | 234 | 2.6 | 4.3 | 0.00 | 0.00 | 0.00 | 89 | 1009.7 |
| 20260505021550 | 63 | 206 | 3.5 | 3.5 | 0.00 | 0.00 | 0.00 | 89 | 1013.2 |
| 20260505021240 | 63 | 206 | 2.6 | 5.2 | 0.00 | 0.00 | 0.00 | 89 | 1009.8 |
| 20260505021051 | 63 | 22 | 1.7 | 7.8 | 0.00 | 0.00 | 0.00 | 89 | 1012.9 |
| 20260505020740 | 63 | 191 | 3.5 | 7.0 | 0.00 | 0.00 | 0.00 | 89 | 1009.6 |
| 20260505020551 | 63 | 168 | 3.5 | 7.0 | 0.00 | 0.00 | 0.00 | 89 | 1013.2 |
| 20260505020241 | 63 | 194 | 2.6 | 7.0 | 0.00 | 0.00 | 0.00 | 89 | 1009.8 |
| 20260505020051 | 63 | 172 | 2.6 | 5.2 | 0.00 | 0.00 | 0.00 | 89 | 1013.2 |
| 20260505015741 | 63 | 217 | 3.5 | 5.2 | 0.00 | 0.00 | 0.00 | 89 | 1009.7 |
| 20260505015550 | 63 | 195 | 2.6 | 5.2 | 0.00 | 0.00 | 0.00 | 89 | 1013.2 |
| 20260505015241 | 64 | 184 | 3.5 | 7.8 | 0.00 | 0.00 | 0.00 | 88 | 1009.6 |
| 20260505015051 | 64 | 186 | 3.5 | 7.8 | 0.00 | 0.00 | 0.00 | 88 | 1013.2 |
| 20260505014741 | 64 | 172 | 1.7 | 7.8 | 0.00 | 0.00 | 0.00 | 89 | 1009.7 |
| 20260505014551 | 64 | 209 | 3.5 | 7.8 | 0.00 | 0.00 | 0.00 | 89 | 1013.2 |
| 20260505014240 | 64 | 214 | 7.0 | 12.2 | 0.00 | 0.00 | 0.00 | 89 | 1009.8 |
| 20260505014051 | 64 | 173 | 3.5 | 7.8 | 0.00 | 0.00 | 0.00 | 89 | 1013.2 |
| 20260505013741 | 64 | 222 | 8.7 | 9.6 | 0.00 | 0.00 | 0.00 | 89 | 1009.8 |
| 20260505013550 | 64 | 215 | 5.2 | 9.6 | 0.00 | 0.00 | 0.00 | 89 | 1013.2 |
| 20260505013241 | 64 | 212 | 6.1 | 8.7 | 0.00 | 0.00 | 0.00 | 89 | 1009.8 |
| 20260505013051 | 64 | 203 | 6.1 | 8.7 | 0.00 | 0.00 | 0.00 | 89 | 1013.2 |
| 20260505012741 | 64 | 184 | 6.1 | 8.7 | 0.00 | 0.00 | 0.00 | 89 | 1009.8 |
| 20260505012550 | 64 | 205 | 3.5 | 10.4 | 0.00 | 0.00 | 0.00 | 89 | 1013.2 |
| 20260505012241 | 64 | 211 | 4.3 | 7.8 | 0.00 | 0.00 | 0.00 | 88 | 1009.8 |
| 20260505012051 | 64 | 234 | 3.5 | 7.8 | 0.00 | 0.00 | 0.00 | 88 | 1013.2 |
| 20260505011741 | 64 | 204 | 4.3 | 9.6 | 0.00 | 0.00 | 0.00 | 88 | 1009.9 |
| 20260505011551 | 64 | 262 | 2.6 | 8.7 | 0.00 | 0.00 | 0.00 | 88 | 1013.2 |
| 20260505011240 | 64 | 237 | 6.1 | 7.8 | 0.00 | 0.00 | 0.00 | 88 | 1009.9 |
| 20260505011050 | 64 | 203 | 3.5 | 7.0 | 0.00 | 0.00 | 0.00 | 88 | 1013.5 |
| 20260505010741 | 64 | 190 | 5.2 | 8.7 | 0.00 | 0.00 | 0.00 | 88 | 1010.2 |
| 20260505010551 | 64 | 229 | 4.3 | 7.8 | 0.00 | 0.00 | 0.00 | 88 | 1013.5 |
| 20260505010241 | 64 | 202 | 4.3 | 8.7 | 0.00 | 0.00 | 0.00 | 88 | 1009.9 |
| 20260505010051 | 64 | 251 | 4.3 | 7.0 | 0.00 | 0.00 | 0.00 | 88 | 1013.5 |
| 20260505005740 | 64 | 219 | 4.3 | 7.8 | 0.00 | 0.00 | 0.00 | 87 | 1010.1 |
| 20260505005551 | 64 | 211 | 5.2 | 8.7 | 0.00 | 0.00 | 0.00 | 87 | 1013.5 |
| 20260505005241 | 64 | 213 | 4.3 | 9.6 | 0.00 | 0.00 | 0.00 | 87 | 1010.1 |
| 20260505005051 | 64 | 212 | 5.2 | 8.7 | 0.00 | 0.00 | 0.00 | 87 | 1013.2 |
| 20260505004740 | 64 | 207 | 4.3 | 9.6 | 0.00 | 0.00 | 0.00 | 87 | 1010.1 |
| 20260505004550 | 64 | 225 | 6.1 | 7.8 | 0.00 | 0.00 | 0.00 | 87 | 1013.5 |
| 20260505004240 | 64 | 207 | 4.3 | 9.6 | 0.00 | 0.00 | 0.00 | 87 | 1010.2 |
| 20260505004051 | 64 | 227 | 5.2 | 7.0 | 0.00 | 0.00 | 0.00 | 87 | 1013.5 |
| 20260505003741 | 64 | 202 | 4.3 | 6.1 | 0.00 | 0.00 | 0.00 | 87 | 1010.2 |
| 20260505003550 | 64 | 225 | 1.7 | 5.2 | 0.00 | 0.00 | 0.00 | 87 | 1013.5 |
| 20260505003240 | 64 | 219 | 7.0 | 7.8 | 0.00 | 0.00 | 0.00 | 86 | 1010.2 |
| 20260505003050 | 65 | 232 | 4.3 | 6.1 | 0.00 | 0.00 | 0.00 | 87 | 1013.5 |
| 20260505002741 | 65 | 214 | 3.5 | 5.2 | 0.00 | 0.00 | 0.00 | 86 | 1010.2 |
| 20260505002550 | 65 | 226 | 6.1 | 7.0 | 0.00 | 0.00 | 0.00 | 86 | 1013.9 |
| 20260505002240 | 65 | 186 | 1.7 | 5.2 | 0.00 | 0.00 | 0.00 | 86 | 1010.4 |
| 20260505002050 | 65 | 233 | 3.5 | 7.8 | 0.00 | 0.00 | 0.00 | 86 | 1013.5 |
| 20260505001741 | 65 | 208 | 4.3 | 5.2 | 0.00 | 0.00 | 0.00 | 86 | 1010.3 |
| 20260505001551 | 65 | 235 | 3.5 | 7.8 | 0.00 | 0.00 | 0.00 | 86 | 1013.9 |
| 20260505001240 | 65 | 266 | 4.3 | 7.8 | 0.00 | 0.00 | 0.00 | 86 | 1010.4 |
| 20260505001050 | 65 | 253 | 1.7 | 7.0 | 0.00 | 0.00 | 0.00 | 86 | 1013.5 |
| 20260505000741 | 65 | 272 | 2.6 | 7.8 | 0.00 | 0.00 | 0.00 | 86 | 1010.6 |
| 20260505000550 | 65 | 258 | 2.6 | 4.3 | 0.00 | 0.00 | 0.00 | 86 | 1013.9 |
| 20260505000240 | 65 | 269 | 3.5 | 7.8 | 0.00 | 0.00 | 0.00 | 87 | 1010.4 |
| 20260505000050 | 65 | 266 | 4.3 | 6.1 | 0.00 | 0.00 | 0.00 | 87 | 1013.9 |
| 20260504235741 | 65 | 274 | 7.8 | 7.8 | 0.00 | 0.00 | 0.00 | 87 | 1010.4 |
| 20260504235551 | 65 | 230 | 4.3 | 8.7 | 0.00 | 0.00 | 0.00 | 86 | 1013.9 |
| 20260504235241 | 65 | 274 | 7.8 | 8.7 | 0.00 | 0.00 | 0.00 | 86 | 1010.4 |
| 20260504235050 | 65 | 209 | 4.3 | 6.1 | 0.00 | 0.00 | 0.00 | 86 | 1013.5 |
| 20260504234740 | 65 | 262 | 6.1 | 6.1 | 0.00 | 0.00 | 0.00 | 86 | 1010.3 |
| 20260504234551 | 65 | 265 | 4.3 | 7.8 | 0.00 | 0.00 | 0.00 | 86 | 1013.9 |
| 20260504234241 | 65 | 268 | 6.1 | 7.8 | 0.00 | 0.00 | 0.00 | 86 | 1010.6 |
| 20260504234051 | 65 | 237 | 3.5 | 7.0 | 0.00 | 0.00 | 0.00 | 86 | 1013.9 |
| 20260504233741 | 65 | 258 | 4.3 | 8.7 | 0.00 | 0.00 | 0.00 | 86 | 1010.4 |
| 20260504233550 | 65 | 261 | 2.6 | 10.4 | 0.00 | 0.00 | 0.00 | 86 | 1013.9 |
| 20260504233241 | 65 | 261 | 7.0 | 11.3 | 0.00 | 0.00 | 0.00 | 86 | 1010.4 |
| 20260504233051 | 65 | 261 | 7.8 | 11.3 | 0.00 | 0.00 | 0.00 | 86 | 1013.5 |
| 20260504232741 | 65 | 229 | 5.2 | 9.6 | 0.00 | 0.00 | 0.00 | 86 | 1010.4 |
| 20260504232551 | 65 | 267 | 5.2 | 7.0 | 0.00 | 0.00 | 0.00 | 86 | 1013.5 |
| 20260504232240 | 65 | 260 | 10.4 | 11.3 | 0.00 | 0.00 | 0.00 | 85 | 1010.6 |
| 20260504232051 | 65 | 271 | 6.1 | 13.0 | 0.00 | 0.00 | 0.00 | 86 | 1013.9 |
| 20260504231741 | 65 | 260 | 10.4 | 11.3 | 0.00 | 0.00 | 0.00 | 85 | 1010.4 |
| 20260504231551 | 65 | 259 | 6.1 | 10.4 | 0.00 | 0.00 | 0.00 | 85 | 1013.9 |
| 20260504231241 | 65 | 265 | 6.1 | 10.4 | 0.00 | 0.00 | 0.00 | 85 | 1010.6 |
| 20260504231050 | 65 | 267 | 1.7 | 7.8 | 0.00 | 0.00 | 0.00 | 85 | 1013.9 |
| 20260504230741 | 65 | 278 | 5.2 | 7.8 | 0.00 | 0.00 | 0.00 | 85 | 1010.5 |
| 20260504230551 | 65 | 256 | 9.6 | 12.2 | 0.00 | 0.00 | 0.00 | 85 | 1013.5 |
| 20260504230241 | 65 | 253 | 2.6 | 6.1 | 0.00 | 0.00 | 0.00 | 84 | 1010.5 |
| 20260504230050 | 65 | 260 | 5.2 | 7.0 | 0.00 | 0.00 | 0.00 | 84 | 1013.9 |
| 20260504225740 | 65 | 271 | 4.3 | 7.8 | 0.00 | 0.00 | 0.00 | 84 | 1010.5 |
| 20260504225550 | 65 | 230 | 5.2 | 8.7 | 0.00 | 0.00 | 0.00 | 84 | 1013.9 |
| 20260504225240 | 65 | 233 | 3.5 | 8.7 | 0.00 | 0.00 | 0.00 | 84 | 1010.4 |
| 20260504225050 | 65 | 264 | 3.5 | 9.6 | 0.00 | 0.00 | 0.00 | 84 | 1013.5 |
| 20260504224742 | 65 | 282 | 7.0 | 9.6 | 0.00 | 0.00 | 0.00 | 84 | 1010.5 |
| 20260504224551 | 65 | 268 | 5.2 | 8.7 | 0.00 | 0.00 | 0.00 | 84 | 1013.9 |
| 20260504224241 | 65 | 271 | 7.0 | 9.6 | 0.00 | 0.00 | 0.00 | 85 | 1010.6 |
| 20260504224050 | 65 | 261 | 7.8 | 10.4 | 0.00 | 0.00 | 0.00 | 85 | 1013.5 |
| 20260504223741 | 65 | 253 | 7.0 | 9.6 | 0.00 | 0.00 | 0.00 | 85 | 1010.3 |
| 20260504223550 | 65 | 268 | 7.0 | 8.7 | 0.00 | 0.00 | 0.00 | 85 | 1013.5 |
| 20260504223241 | 65 | 271 | 5.2 | 6.1 | 0.00 | 0.00 | 0.00 | 85 | 1010.3 |
| 20260504223050 | 65 | 260 | 6.1 | 10.4 | 0.00 | 0.00 | 0.00 | 85 | 1013.5 |
| 20260504222742 | 65 | 271 | 4.3 | 6.1 | 0.00 | 0.00 | 0.00 | 85 | 1010.3 |
| 20260504222551 | 65 | 228 | 4.3 | 7.8 | 0.00 | 0.00 | 0.00 | 85 | 1013.9 |
| 20260504222240 | 65 | 256 | 3.5 | 7.8 | 0.00 | 0.00 | 0.00 | 85 | 1010.6 |
| 20260504222051 | 65 | 236 | 2.6 | 7.8 | 0.00 | 0.00 | 0.00 | 85 | 1013.9 |
| 20260504221742 | 65 | 255 | 2.6 | 7.8 | 0.00 | 0.00 | 0.00 | 85 | 1010.5 |
| 20260504221550 | 65 | 227 | 2.6 | 8.7 | 0.00 | 0.00 | 0.00 | 85 | 1013.9 |
| 20260504221241 | 65 | 258 | 2.6 | 7.0 | 0.00 | 0.00 | 0.00 | 85 | 1010.5 |
| 20260504221051 | 65 | 163 | 2.6 | 7.8 | 0.00 | 0.00 | 0.00 | 85 | 1013.5 |
| 20260504220741 | 65 | 262 | 7.8 | 8.7 | 0.00 | 0.00 | 0.00 | 85 | 1010.5 |
| 20260504220551 | 65 | 229 | 1.7 | 7.8 | 0.00 | 0.00 | 0.00 | 85 | 1013.9 |
| 20260504220241 | 65 | 262 | 2.6 | 8.7 | 0.00 | 0.00 | 0.00 | 85 | 1010.3 |
| 20260504220050 | 65 | 236 | 1.7 | 7.0 | 0.00 | 0.00 | 0.00 | 86 | 1013.9 |
| 20260504215740 | 65 | 262 | 3.5 | 5.2 | 0.00 | 0.00 | 0.00 | 86 | 1010.2 |
| 20260504215550 | 65 | 266 | 4.3 | 7.0 | 0.00 | 0.00 | 0.00 | 86 | 1013.9 |
| 20260504215240 | 65 | 253 | 3.5 | 4.3 | 0.00 | 0.00 | 0.00 | 87 | 1010.5 |
| 20260504215050 | 65 | 260 | 2.6 | 6.1 | 0.00 | 0.00 | 0.00 | 87 | 1013.5 |
| 20260504214741 | 65 | 276 | 2.6 | 6.1 | 0.00 | 0.00 | 0.00 | 87 | 1010.3 |
| 20260504214550 | 65 | 200 | 3.5 | 8.7 | 0.00 | 0.00 | 0.00 | 87 | 1013.5 |
| 20260504214241 | 65 | 266 | 1.7 | 7.0 | 0.00 | 0.00 | 0.00 | 87 | 1010.4 |
| 20260504214050 | 65 | 205 | 2.6 | 7.0 | 0.00 | 0.00 | 0.00 | 87 | 1013.5 |
| 20260504213740 | 65 | 253 | 5.2 | 6.1 | 0.00 | 0.00 | 0.00 | 88 | 1010.5 |
| 20260504213551 | 65 | 226 | 5.2 | 7.0 | 0.00 | 0.00 | 0.00 | 88 | 1013.5 |
| 20260504213241 | 65 | 218 | 2.6 | 7.0 | 0.00 | 0.00 | 0.00 | 88 | 1010.3 |
| 20260504213050 | 65 | 247 | 1.7 | 6.1 | 0.00 | 0.00 | 0.00 | 88 | 1013.9 |
| 20260504212740 | 65 | 218 | 2.6 | 7.0 | 0.00 | 0.00 | 0.00 | 88 | 1010.4 |
| 20260504212550 | 65 | 252 | 0.0 | 7.0 | 0.00 | 0.00 | 0.00 | 88 | 1013.9 |
| 20260504212242 | 65 | 261 | 4.3 | 6.1 | 0.00 | 0.00 | 0.00 | 88 | 1010.4 |
| 20260504212051 | 65 | 221 | 2.6 | 6.1 | 0.00 | 0.00 | 0.00 | 88 | 1014.2 |
| 20260504211741 | 65 | 230 | 1.7 | 6.1 | 0.00 | 0.00 | 0.00 | 88 | 1010.5 |
| 20260504211550 | 65 | 246 | 2.6 | 5.2 | 0.00 | 0.00 | 0.00 | 88 | 1013.5 |
| 20260504211241 | 65 | 248 | 5.2 | 7.0 | 0.00 | 0.00 | 0.00 | 88 | 1010.3 |
| 20260504211051 | 65 | 197 | 5.2 | 9.6 | 0.00 | 0.00 | 0.00 | 88 | 1013.9 |
| 20260504210740 | 65 | 207 | 2.6 | 4.3 | 0.00 | 0.00 | 0.00 | 88 | 1010.5 |
| 20260504210550 | 65 | 248 | 2.6 | 7.8 | 0.00 | 0.00 | 0.00 | 88 | 1013.9 |
| 20260504210241 | 65 | 238 | 3.5 | 7.8 | 0.00 | 0.00 | 0.00 | 88 | 1010.5 |
| 20260504210050 | 65 | 203 | 7.0 | 7.8 | 0.00 | 0.00 | 0.00 | 88 | 1013.5 |
| 20260504205741 | 65 | 229 | 7.8 | 9.6 | 0.00 | 0.00 | 0.00 | 88 | 1010.5 |
| 20260504205551 | 65 | 240 | 5.2 | 8.7 | 0.00 | 0.00 | 0.00 | 88 | 1013.5 |
| 20260504205241 | 66 | 219 | 7.0 | 8.7 | 0.00 | 0.00 | 0.00 | 88 | 1010.2 |
| 20260504205051 | 66 | 236 | 7.0 | 7.8 | 0.00 | 0.00 | 0.00 | 88 | 1013.5 |
| 20260504204741 | 66 | 233 | 7.0 | 8.7 | 0.00 | 0.00 | 0.00 | 88 | 1010.3 |
| 20260504204551 | 66 | 245 | 6.1 | 11.3 | 0.00 | 0.00 | 0.00 | 87 | 1013.9 |
| 20260504204241 | 65 | 232 | 6.1 | 11.3 | 0.00 | 0.00 | 0.00 | 88 | 1010.3 |
| 20260504204050 | 65 | 232 | 6.1 | 11.3 | 0.00 | 0.00 | 0.00 | 88 | 1013.5 |
| 20260504203741 | 65 | 221 | 7.8 | 11.3 | 0.00 | 0.00 | 0.00 | 88 | 1010.2 |
| 20260504203551 | 65 | 238 | 9.6 | 13.0 | 0.00 | 0.00 | 0.00 | 88 | 1013.5 |
| 20260504203241 | 65 | 223 | 5.2 | 11.3 | 0.00 | 0.00 | 0.00 | 89 | 1010.4 |
| 20260504203050 | 65 | 185 | 8.7 | 13.0 | 0.00 | 0.00 | 0.00 | 89 | 1013.5 |
| 20260504202741 | 65 | 223 | 7.8 | 13.0 | 0.00 | 0.00 | 0.00 | 89 | 1010.1 |
| 20260504202551 | 65 | 229 | 7.8 | 12.2 | 0.00 | 0.00 | 0.00 | 89 | 1013.5 |
| 20260504202241 | 65 | 232 | 7.8 | 10.4 | 0.00 | 0.00 | 0.00 | 89 | 1010.1 |
| 20260504202051 | 66 | 225 | 10.4 | 12.2 | 0.00 | 0.00 | 0.00 | 89 | 1013.5 |
| 20260504201741 | 66 | 246 | 8.7 | 10.4 | 0.00 | 0.00 | 0.00 | 88 | 1010.1 |
| 20260504201550 | 66 | 194 | 7.0 | 9.6 | 0.00 | 0.00 | 0.00 | 88 | 1013.5 |
| 20260504201241 | 65 | 217 | 6.1 | 12.2 | 0.00 | 0.00 | 0.00 | 88 | 1010.0 |
| 20260504201051 | 65 | 225 | 10.4 | 11.3 | 0.00 | 0.00 | 0.00 | 88 | 1013.5 |
| 20260504200741 | 65 | 229 | 8.7 | 12.2 | 0.00 | 0.00 | 0.00 | 88 | 1010.2 |